haerbin , China , ASIA

  • Thursday
    April 27

    Cloudy  Cloudy

    63 °F  37 °F

    West  Northwest

    3~4L    

  • Friday
    April 28

    Cloudy  Cloudy

    63 °F  41 °F

    Northwest  West

    3~4L   3~4L 

  • Saturday
    April 29

    Cloudy  Sunny

    73 °F  43 °F

    Southwest  Northwest

    5~6L   4~5L 

  • Sunday
    April 30

    Cloudy  Sunny

    59 °F  37 °F

    Northwest  Northwest

    4~5L    

  • Monday
    May 1

    Sunny  Sunny

    72 °F  46 °F

    Southwest  Southwest

    3~4L   3~4L 

  • Tuesday
    May 2

    Sunny  Sunny

    81 °F  55 °F

    Southwest  Southwest

    5~6L   4~5L 

  • Wednesday
    May 3

    Cloudy  Cloudy

    77 °F  54 °F

    Southwest  Southwest

    5~6L   4~5L 

Date   Weather Temperature Humidity Total_rain Visibility Wind
11:00 Cloudy 59°F 38.7% 0mm 12km Northwest  3.7m/s
14:00 Cloudy 62°F 31.5% 0mm 12km Northwest  5.1m/s
17:00 Cloudy 60°F 32.9% 0mm 12km Northwest  4.3m/s
20:00 Cloudy 56°F 40.7% 0mm 12km Northwest  3.3m/s
23:00 Cloudy 47°F 52% 0mm 12km Northwest  3.0m/s
02:00 Cloudy 42°F 58% 0mm 12km Northwest  2.9m/s
05:00 Cloudy 38°F 64.1% 0mm 12km Northwest  2.5m/s
08:00 Cloudy 43°F 42.7% 0mm 12km Southwest  2.5m/s
11:00 Cloudy 54°F 70.7% 0mm 12km Northwest  3.0m/s
14:00 Cloudy 54°F 62.2% 0mm 12km Northwest  3.2m/s
17:00 Cloudy 54°F 54.8% 0mm 12km Northwest  3.6m/s
20:00 Cloudy 56°F 62% 0mm 12km Northwest  2.5m/s
23:00 Cloudy 49°F 74.3% 0mm 12km Northwest  2.3m/s
02:00 Cloudy 44°F 83.3% 0mm 12km Northwest  1.9m/s
05:00 Cloudy 41°F 90.8% 0mm 12km Southwest  2.1m/s
08:00 Cloudy 62°F 52.5% 0mm 12km Southwest  3.3m/s
11:00 Cloudy 67°F 34.3% 0mm 12km Southwest  6.1m/s
14:00 Cloudy 73°F 30.9% 0mm 12km Northwest  6.3m/s
17:00 Cloudy 73°F 27.5% 0mm 12km Northwest  5.9m/s
20:00 Cloudy 61°F 31% 0mm 12km Northwest  4.5m/s
23:00 Sunny 54°F 35.6% 0mm 12km Northwest  4.2m/s
02:00 Sunny 47°F 40.6% 0mm 12km Northwest  4.4m/s
05:00 Sunny 43°F 44.4% 0mm 12km Northwest  4.2m/s
08:00 Sunny 53°F 36.4% 0mm 12km Northwest  5.2m/s
11:00 Cloudy 55°F 22.1% 0mm 12km Northwest  5.8m/s
14:00 Cloudy 58°F 21.7% 0mm 12km Northwest  5.8m/s
17:00 Cloudy 59°F 21.4% 0mm 12km Northwest  4.8m/s
20:00 Cloudy 47°F 49.2% 0mm 12km Northeast  2.4m/s
23:00 Sunny 44°F 58.3% 0mm 12km Northeast  1.2m/s
02:00 Sunny 41°F 63.4% 0mm 12km Southeast  0.6m/s
05:00 Sunny 38°F 77.8% 0mm 12km Southeast  2.2m/s
08:00 Sunny 53°F 41.8% 0mm 12km Southwest  1.6m/s
11:00 Sunny 63°F 16.4% 0mm 12km Southwest  2.0m/s
14:00 Sunny 70°F 20.2% 0mm 12km Southwest  2.1m/s
17:00 Sunny 71°F 24% 0mm 12km Southwest  2.5m/s
20:00 Sunny 49°F 30.5% 0mm 4km Southeast  3.2m/s
23:00 Sunny 48°F 35% 0mm 12km Southwest  5.9m/s
02:00 Sunny 47°F 52.6% 0mm 12km Southeast  2.8m/s
05:00 Sunny 51°F 38.3% 0mm 12km Southwest  7.9m/s
08:00 Sunny 64°F 35.1% 0mm 12km Southwest  2.9m/s
11:00 Sunny 70°F 12.7% 0mm 12km Southwest  9.8m/s
14:00 Sunny 80°F 18.8% 0mm 4km Southwest  4.1m/s
17:00 Sunny 77°F 21.4% 0mm 12km Southwest  7.4m/s
20:00 Sunny 67°F 21.5% 0mm 12km Southwest  4.1m/s
23:00 Sunny 62°F 21.6% 0mm 12km Southwest  10.7m/s
02:00 Sunny 58°F 38.4% 0mm 12km Southwest  5.4m/s
05:00 Sunny 56°F 25.3% 0mm 12km Southwest  8.6m/s
08:00 Sunny 66°F 25.4% 0mm 12km Southwest  6.6m/s
11:00 Cloudy 72°F 18.1% 0mm 12km Northwest  4.8m/s
14:00 Cloudy 77°F 18.3% 0mm 4km Southwest  9.0m/s
17:00 Cloudy 72°F 18.5% 0mm 4km Southwest  3.2m/s
20:00 Cloudy 66°F 17.2% 0mm 12km Southwest  6.0m/s
23:00 Cloudy 58°F 38.6% 0mm 12km Southeast  2.3m/s
02:00 Cloudy 56°F 45.3% 0mm 12km Southwest  4.4m/s
05:00 Cloudy 54°F 46.3% 0mm 12km Southwest  4.3m/s